Weather in Petrovac

Montenegro     42°12′28″N   18°56′18″E
temp.,
°C
wind,
m/s
gust,
m/s
humid.,
%
clouds,
%
prec.,
mm/h
press.,
hPa
HPBL,
m
14 may, fri
fri1423:00+11ene239194 1.8 101194
02:00+11ene339679 5.1 1011120
05:00+10ene229410 1.2 101145
08:00+14nnw137149 1.8 1012545
11:00+14ssw127349 1.3 1013332
14:00+17s36530 1.7 10141533
17:00+17s3457100 0.0 1013929
20:00+13e1280100 0.1 101378
15 may, sat
sat1523:00+12ese2390100 0.4 101373
02:00+13se3589100 2.9 1012218
05:00+12e3595100 4.0 1011267
08:00+12nne1193100 8.4 1011140
11:00+13sse0192100 2.5 1012115
14:00+13e2291100 4.9 1012197
17:00+13ene118880 0.4 1012157
20:00+12ene11883 0.4 101275
16 may, sun
sun1623:00+10ne229138 0.0 101242
02:00+10nne229026 0.0 101345
05:00+9ne228969 0.0 101245
08:00+13ene2282100 0.0 1013187
11:00+17sw1169100 0.0 1013724
14:00+17sw2271100 0.1 1013737
17:00+17ssw216857 0.0 1012506
20:00+15e1179100 0.0 101240
17 may, mon
mon1723:00+14ne118366 0.0 101332
02:00+14ene228758 0.0 101342
05:00+13ne229033 0.0 101248
08:00+16ene227644 0.0 1013239
11:00+20se236310 0.0 1013787
14:00+21s33585 0.0 1012947
17:00+20sse236089 0.0 1012480
20:00+17ene1170100 0.0 101215
18 may, tue
tue1823:00+17ene227196 0.0 101336
02:00+16e227260 0.0 101342
05:00+15ese258512 0.0 1012126
08:00+18sse447839 0.0 1012381
11:00+18ssw357988 0.4 1012573
14:00+18wsw487879 1.1 1012991
17:00+18wnw4952100 0.0 10131071
20:00+13wsw44832 0.0 1014227